Radiation Dose at Monitoring Post of Fukushima Daini Nuclear Power Station
Date,Time,MP-1(microSv/h),MP-2(microSv/h),MP-3(microSv/h),MP-4(microSv/h),MP-5(microSv/h),MP-6(microSv/h),MP-7(microSv/h),Wind Direction,Wind Velocity(m/s),Rain
2015/04/22,00:00,0.532,0.327,0.552,0.513,0.548,0.246,0.217,north,4.9,No
2015/04/22,00:10,0.534,0.324,0.553,0.513,0.549,0.247,0.219,north,4.7,No
2015/04/22,00:20,0.532,0.326,0.550,0.513,0.549,0.247,0.216,north,4.8,No
2015/04/22,00:30,0.533,0.327,0.553,0.514,0.548,0.247,0.217,north,5.3,No
2015/04/22,00:40,0.535,0.324,0.554,0.512,0.548,0.247,0.217,north,4.4,No
2015/04/22,00:50,0.533,0.326,0.551,0.514,0.550,0.246,0.218,north,4.2,No
2015/04/22,01:00,0.534,0.328,0.552,0.513,0.549,0.247,0.217,north,3.5,No
2015/04/22,01:10,0.535,0.326,0.554,0.512,0.549,0.247,0.218,north,2.1,No
2015/04/22,01:20,0.533,0.325,0.552,0.513,0.550,0.247,0.217,north,3.0,No
2015/04/22,01:30,0.534,0.328,0.553,0.516,0.548,0.247,0.219,north,2.3,No
2015/04/22,01:40,0.537,0.326,0.553,0.513,0.548,0.246,0.217,north,2.1,No
2015/04/22,01:50,0.532,0.325,0.552,0.512,0.549,0.246,0.218,north-northeast,1.5,No
2015/04/22,02:00,0.534,0.325,0.550,0.514,0.550,0.246,0.217,north,1.3,No
2015/04/22,02:10,0.533,0.327,0.554,0.513,0.548,0.245,0.217,northwest,0.8,No
2015/04/22,02:20,0.532,0.326,0.552,0.513,0.547,0.246,0.217,north-northwest,0.8,No
2015/04/22,02:30,0.534,0.325,0.552,0.513,0.550,0.246,0.218,north,0.9,No
2015/04/22,02:40,0.535,0.327,0.554,0.513,0.548,0.245,0.217,north-northeast,0.8,No
2015/04/22,02:50,0.533,0.326,0.554,0.513,0.547,0.245,0.216,north,0.7,No
2015/04/22,03:00,0.533,0.326,0.552,0.511,0.548,0.246,0.217,-,CALM,No
2015/04/22,03:10,0.534,0.326,0.554,0.513,0.547,0.246,0.216,north-northwest,0.8,No
2015/04/22,03:20,0.532,0.327,0.554,0.512,0.546,0.246,0.216,north,0.7,No
2015/04/22,03:30,0.532,0.325,0.551,0.513,0.548,0.246,0.217,northwest,0.8,No
2015/04/22,03:40,0.533,0.325,0.553,0.514,0.549,0.246,0.217,north-northwest,0.8,No
2015/04/22,03:50,0.532,0.325,0.555,0.514,0.548,0.247,0.218,north-northwest,0.7,No
2015/04/22,04:00,0.532,0.327,0.553,0.512,0.548,0.247,0.216,north,0.6,No
2015/04/22,04:10,0.534,0.326,0.551,0.512,0.549,0.247,0.217,-,CALM,No
2015/04/22,04:20,0.532,0.324,0.554,0.514,0.545,0.245,0.216,-,CALM,No
2015/04/22,04:30,0.532,0.327,0.554,0.511,0.548,0.247,0.217,-,CALM,No
2015/04/22,04:40,0.535,0.325,0.551,0.512,0.548,0.246,0.217,south,0.6,No
2015/04/22,04:50,0.532,0.326,0.553,0.511,0.549,0.247,0.219,south,1.0,No
2015/04/22,05:00,0.531,0.325,0.554,0.512,0.546,0.247,0.216,south-southeast,0.8,No
2015/04/22,05:10,0.533,0.326,0.551,0.512,0.548,0.247,0.216,south,1.1,No
2015/04/22,05:20,0.532,0.327,0.552,0.511,0.550,0.246,0.217,southwest,2.2,No
2015/04/22,05:30,0.532,0.326,0.552,0.514,0.546,0.245,0.216,southwest,2.6,No
2015/04/22,05:40,0.534,0.326,0.553,0.513,0.547,0.247,0.217,south-southwest,2.2,No
2015/04/22,05:50,0.533,0.325,0.553,0.513,0.547,0.246,0.217,south,1.9,No
2015/04/22,06:00,0.533,0.326,0.552,0.510,0.547,0.246,0.216,south,2.5,No
2015/04/22,06:10,0.532,0.325,0.556,0.514,0.549,0.246,0.218,south,2.2,No
2015/04/22,06:20,0.535,0.326,0.552,0.513,0.549,0.246,0.218,south,2.7,No
2015/04/22,06:30,0.534,0.324,0.552,0.512,0.547,0.246,0.217,south,3.5,No
2015/04/22,06:40,0.531,0.328,0.552,0.513,0.548,0.246,0.216,south-southwest,3.7,No
2015/04/22,06:50,0.534,0.326,0.550,0.512,0.548,0.247,0.215,south-southwest,3.5,No
2015/04/22,07:00,0.532,0.324,0.550,0.511,0.546,0.247,0.217,south-southwest,4.7,No
2015/04/22,07:10,0.532,0.327,0.552,0.513,0.549,0.247,0.216,south-southwest,4.7,No
2015/04/22,07:20,0.533,0.323,0.548,0.510,0.548,0.246,0.217,south,4.8,No
2015/04/22,07:30,0.532,0.326,0.551,0.515,0.548,0.246,0.216,south,4.8,No
2015/04/22,07:40,0.534,0.324,0.548,0.509,0.550,0.247,0.217,south,3.8,No
2015/04/22,07:50,0.531,0.325,0.554,0.514,0.548,0.247,0.217,south,3.5,No
2015/04/22,08:00,0.534,0.322,0.551,0.509,0.552,0.248,0.215,south,3.9,No
2015/04/22,08:10,0.530,0.326,0.551,0.515,0.546,0.246,0.217,south,5.0,No
2015/04/22,08:20,0.532,0.324,0.554,0.509,0.552,0.247,0.216,south,5.8,No
2015/04/22,08:30,0.530,0.324,0.549,0.514,0.545,0.246,0.219,south-southeast,5.9,No
2015/04/22,08:40,0.531,0.326,0.554,0.513,0.552,0.246,0.215,south,6.3,No
2015/04/22,08:50,0.525,0.323,0.551,0.510,0.546,0.245,0.219,south,6.1,No
2015/04/22,09:00,0.534,0.327,0.554,0.517,0.550,0.247,0.216,south-southeast,6.7,No
2015/04/22,09:10,0.530,0.325,0.551,0.512,0.545,0.246,0.217,south,6.5,No
2015/04/22,09:20,0.528,0.325,0.555,0.512,0.553,0.248,0.217,south,6.7,No
2015/04/22,09:30,0.534,0.326,0.550,0.513,0.547,0.246,0.216,south,7.5,No
2015/04/22,09:40,0.527,0.323,0.556,0.508,0.551,0.247,0.218,south-southeast,7.0,No
2015/04/22,09:50,0.530,0.326,0.552,0.516,0.551,0.247,0.217,south,7.3,No
2015/04/22,10:00,0.533,0.323,0.554,0.515,0.548,0.247,0.217,south,7.5,No
2015/04/22,10:10,0.529,0.327,0.552,0.513,0.555,0.247,0.218,south,7.8,No
2015/04/22,10:20,0.534,0.327,0.555,0.516,0.547,0.247,0.218,south,7.2,No
2015/04/22,10:30,0.533,0.326,0.549,0.512,0.552,0.248,0.218,south,7.6,No
2015/04/22,10:40,0.528,0.327,0.555,0.515,0.553,0.248,0.217,south,7.8,No
2015/04/22,10:50,0.537,0.324,0.552,0.517,0.546,0.249,0.219,south,9.4,No
2015/04/22,11:00,0.532,0.327,0.548,0.513,0.556,0.246,0.218,south,9.5,No
2015/04/22,11:10,0.530,0.326,0.556,0.517,0.551,0.247,0.217,south,9.7,No
2015/04/22,11:20,0.537,0.327,0.555,0.517,0.550,0.247,0.218,south,10.7,No
2015/04/22,11:30,0.533,0.328,0.550,0.512,0.554,0.247,0.216,south,11.2,No
2015/04/22,11:40,0.528,0.323,0.553,0.517,0.548,0.248,0.218,south,11.3,No
2015/04/22,11:50,0.535,0.327,0.555,0.519,0.549,0.247,0.218,south,11.1,No
2015/04/22,12:00,0.536,0.328,0.552,0.513,0.556,0.247,0.219,south,13.3,No
2015/04/22,12:10,0.531,0.324,0.550,0.519,0.549,0.247,0.219,south,12.6,No
2015/04/22,12:20,0.538,0.328,0.558,0.521,0.554,0.247,0.219,south,12.9,No
2015/04/22,12:30,0.535,0.324,0.554,0.513,0.553,0.248,0.219,south,12.3,No
2015/04/22,12:40,0.533,0.326,0.550,0.520,0.549,0.247,0.219,south,10.0,No
2015/04/22,12:50,0.539,0.327,0.555,0.519,0.556,0.248,0.220,south,11.8,No
2015/04/22,13:00,0.531,0.325,0.556,0.513,0.555,0.249,0.220,south,8.7,No
2015/04/22,13:10,0.536,0.326,0.555,0.518,0.549,0.247,0.219,south,9.2,No
2015/04/22,13:20,0.537,0.327,0.553,0.522,0.555,0.248,0.219,south,9.4,No
2015/04/22,13:30,0.531,0.325,0.560,0.514,0.553,0.247,0.218,south,10.2,No
2015/04/22,13:40,0.538,0.329,0.557,0.523,0.549,0.248,0.221,south,11.2,No
2015/04/22,13:50,0.534,0.327,0.556,0.518,0.557,0.248,0.220,south,10.4,No
2015/04/22,14:00,0.541,0.329,0.559,0.518,0.552,0.247,0.220,south,11.3,No
2015/04/22,14:10,0.534,0.326,0.557,0.522,0.553,0.248,0.219,south,12.1,No
2015/04/22,14:20,0.538,0.329,0.562,0.518,0.554,0.247,0.220,south,11.8,No
2015/04/22,14:30,0.534,0.326,0.558,0.521,0.553,0.248,0.219,south,11.2,No
2015/04/22,14:40,0.537,0.329,0.560,0.517,0.554,0.249,0.222,south,11.2,No
2015/04/22,14:50,0.537,0.325,0.557,0.522,0.552,0.249,0.220,south,11.5,No
2015/04/22,15:00,0.540,0.330,0.560,0.519,0.557,0.249,0.221,south,14.0,No
2015/04/22,15:10,0.534,0.327,0.558,0.523,0.551,0.248,0.221,south,13.1,No
2015/04/22,15:20,0.536,0.329,0.557,0.518,0.559,0.250,0.220,south,12.7,No
2015/04/22,15:30,0.534,0.325,0.558,0.525,0.552,0.248,0.219,south,13.8,No
2015/04/22,15:40,0.537,0.328,0.557,0.518,0.558,0.249,0.221,south,14.1,No
2015/04/22,15:50,0.535,0.325,0.559,0.523,0.553,0.248,0.219,south,14.1,No
2015/04/22,16:00,0.537,0.328,0.558,0.518,0.557,0.250,0.219,south,11.9,No
2015/04/22,16:10,0.536,0.327,0.561,0.523,0.552,0.248,0.219,south,14.0,No
2015/04/22,16:20,0.536,0.329,0.557,0.520,0.555,0.249,0.220,south,11.2,No
2015/04/22,16:30,0.537,0.325,0.560,0.522,0.551,0.248,0.220,south,12.3,No
2015/04/22,16:40,0.535,0.328,0.558,0.519,0.558,0.250,0.220,south,10.8,No
2015/04/22,16:50,0.537,0.327,0.560,0.523,0.552,0.249,0.220,south,9.1,No
2015/04/22,17:00,0.536,0.327,0.558,0.521,0.557,0.250,0.221,south,8.5,No
2015/04/22,17:10,0.538,0.325,0.559,0.519,0.554,0.249,0.220,south,7.7,No
2015/04/22,17:20,0.538,0.325,0.561,0.522,0.558,0.249,0.221,south,7.2,No
2015/04/22,17:30,0.535,0.327,0.557,0.520,0.553,0.249,0.220,south,8.2,No
2015/04/22,17:40,0.537,0.326,0.562,0.523,0.556,0.249,0.221,south,7.5,No
2015/04/22,17:50,0.537,0.328,0.555,0.520,0.555,0.249,0.220,south-southwest,8.2,No
2015/04/22,18:00,0.537,0.327,0.560,0.523,0.556,0.249,0.220,south-southwest,8.9,No
2015/04/22,18:10,0.535,0.328,0.556,0.520,0.554,0.250,0.220,south,7.8,No
2015/04/22,18:20,0.539,0.326,0.563,0.522,0.555,0.248,0.220,south,7.5,No
2015/04/22,18:30,0.535,0.328,0.555,0.522,0.558,0.249,0.220,south,7.8,No
2015/04/22,18:40,0.539,0.327,0.560,0.521,0.554,0.248,0.219,south-southwest,7.8,No
2015/04/22,18:50,0.535,0.327,0.559,0.522,0.558,0.249,0.219,south,6.9,No
2015/04/22,19:00,0.537,0.326,0.560,0.519,0.553,0.248,0.220,south,8.3,No
2015/04/22,19:10,0.535,0.326,0.557,0.523,0.558,0.249,0.221,south,7.9,No
2015/04/22,19:20,0.539,0.328,0.561,0.520,0.554,0.250,0.220,south,8.5,No
2015/04/22,19:30,0.536,0.326,0.559,0.523,0.555,0.249,0.220,south,8.1,No
2015/04/22,19:40,0.538,0.328,0.559,0.519,0.554,0.249,0.220,south,7.4,No
2015/04/22,19:50,0.537,0.325,0.561,0.522,0.552,0.249,0.220,south,7.1,No
2015/04/22,20:00,0.536,0.327,0.557,0.521,0.558,0.248,0.220,south,7.6,No
2015/04/22,20:10,0.537,0.328,0.560,0.521,0.551,0.249,0.219,south,8.1,No
2015/04/22,20:20,0.536,0.326,0.557,0.522,0.556,0.248,0.220,south,8.8,No
2015/04/22,20:30,0.538,0.328,0.560,0.520,0.552,0.249,0.220,south,9.2,No
2015/04/22,20:40,0.535,0.326,0.559,0.522,0.555,0.249,0.219,south,9.1,No
2015/04/22,20:50,0.538,0.326,0.559,0.521,0.555,0.249,0.220,south,9.2,No
2015/04/22,21:00,0.535,0.326,0.560,0.523,0.552,0.248,0.222,south-southwest,9.8,No
2015/04/22,21:10,0.538,0.326,0.559,0.522,0.557,0.250,0.220,south-southwest,8.4,No
2015/04/22,21:20,0.535,0.328,0.561,0.521,0.551,0.248,0.221,south-southwest,8.6,No
2015/04/22,21:30,0.535,0.324,0.557,0.522,0.555,0.250,0.219,south-southwest,7.4,No
2015/04/22,21:40,0.536,0.329,0.561,0.519,0.554,0.248,0.221,south,7.0,No
2015/04/22,21:50,0.536,0.328,0.558,0.524,0.552,0.249,0.221,south-southwest,7.0,No
2015/04/22,22:00,0.538,0.327,0.560,0.520,0.554,0.248,0.219,south,7.4,No
2015/04/22,22:10,0.535,0.326,0.557,0.523,0.551,0.247,0.221,south,8.3,No
2015/04/22,22:20,0.538,0.326,0.560,0.520,0.554,0.250,0.221,south,9.0,No
2015/04/22,22:30,0.535,0.329,0.560,0.522,0.552,0.249,0.220,south,8.4,No
2015/04/22,22:40,0.538,0.325,0.558,0.522,0.555,0.249,0.220,south-southwest,8.9,No
2015/04/22,22:50,0.533,0.327,0.562,0.520,0.553,0.249,0.221,south-southwest,7.2,No
2015/04/22,23:00,0.537,0.327,0.558,0.523,0.552,0.250,0.220,south-southwest,7.2,No
2015/04/22,23:10,0.536,0.324,0.562,0.520,0.555,0.249,0.220,south-southwest,7.2,No
2015/04/22,23:20,0.534,0.328,0.559,0.522,0.552,0.248,0.220,south,7.1,No
2015/04/22,23:30,0.537,0.327,0.561,0.522,0.554,0.248,0.220,south-southwest,6.4,No
2015/04/22,23:40,0.533,0.326,0.558,0.521,0.552,0.247,0.220,south-southwest,4.3,No
2015/04/22,23:50,0.538,0.326,0.560,0.523,0.552,0.249,0.220,south-southwest,4.7,No
